Regional Weather Roundup
Issued by NWS

Home | Current Version | Previous Version | Text Only | Print | Product List | Glossary On
Versions: 1 2 3 4 5 6 7 8 9 10 11 12 13 14 15 16 17 18 19 20 21 22 23 24 25 26 27 28 29 30 31 32 33 34 35 36 37 38 39 40 41 42 43 44 45 46 47 48 49 50
000
ASUS43 KDTX 230910
RWRMI
MICHIGAN HOURLY REGIONAL WEATHER ROUNDUP
NATIONAL WEATHER SERVICE DETROIT/PONTIAC MI
500 AM EDT SUN JUL 23 2017

NOTE: "FAIR" INDICATES FEW OR NO CLOUDS BELOW 12,000 FEET WITH NO
SIGNIFICANT WEATHER AND/OR OBSTRUCTION TO VISIBILITY.

MIZ047>049-052>055-059>063-066>070-074>076-081>083-231000-
SOUTHEAST LOWER MICHIGAN

CITY           SKY/WX    TMP DP  RH WIND       PRES   REMARKS
ADRIAN         CLEAR     67  65  93 SW3       29.80R
ALMA           CLOUDY    65  64  96 W10       29.81S FOG
ANN ARBOR      CLOUDY    69  66  90 W6        29.79R
BAD AXE        CLOUDY    65  65  99 CALM      29.78S FOG
CARO           CLOUDY    68  64  88 CALM      29.78S FOG
DETROIT CITY   CLOUDY    72  66  81 NW5       29.76S
DETROIT        CLOUDY    71  67  87 NW5       29.77F
FLINT          CLOUDY    66  65  96 N6        29.79R FOG
GROSSE ILE     CLEAR     70  66  88 NW6       29.76R
HILLSDALE      FOG       64  64 100 CALM      29.79R VSB 3/4
HOWELL         MOCLDY    67  65  91 NW3       29.80R

CITY           SKY/WX    TMP DP  RH WIND       PRES   REMARKS
JACKSON        LGT RAIN  68  66  93 NE5       29.79R
LAMBERTVILLE   CLEAR     66  65  97 CALM      29.79R FOG
LANSING        CLOUDY    66  63  90 CALM      29.81R
LAPEER         CLOUDY    67  66  97 CALM      29.78S FOG
MASON          CLOUDY    67  65  96 NW3       29.81R
MONROE         CLEAR     67  66  96 CALM      29.77R
MT. CLEMENS    CLOUDY    70  70 100 CALM      29.74S
PONTIAC        CLOUDY    68  66  93 W5        29.77S
PORT HOPE        N/A     69  66  90 NE7       29.77S
PORT HURON     CLOUDY    68  66  94 CALM      29.76F
TRI CITIES     PTCLDY    64  64 100 NW3       29.79S FOG
MIDLAND        CLOUDY    64  64 100 CALM      29.78S FOG
TROY           CLOUDY    71  66  85 NW5       29.79S
SAGINAW HB     CLOUDY    64  64 100 CALM      29.78F FOG
$$
MIZ043>046-050>051-056>058-064>065-071>073-077>080-231000-
SOUTHWEST LOWER MICHIGAN

CITY           SKY/WX    TMP DP  RH WIND       PRES   REMARKS
BATTLE CREEK   CLOUDY    69  69 100 N3        29.81R
BENTON HARBOR  FOG       67  64  90 CALM      29.79R VSB 1
BIG RAPIDS     RAIN      67  64  91 CALM      29.81R
COLDWATER      FOG       67  67 100 CALM      29.80S VSB 1/2
FREMONT        RAIN      66  66 100 CALM      29.79F
HOLLAND        FOG       67  66  97 NE5       29.79F VSB 1/4
GRAND RAPIDS   CLOUDY    71  70  96 CALM      29.79F FOG
IONIA          CLOUDY    67  66  97 CALM      29.80S FOG
KALAMAZOO      FOG       68  66  93 CALM      29.80R VSB 1/4
LUDINGTON      CLOUDY    66  66  98 SW9       29.74S
MARSHALL       FOG       67  66  97 CALM      29.79R VSB 1
MOUNT PLEASANT PTCLDY    66  64  94 S3        29.79S
MUSKEGON       MOCLDY    68  67  96 E7        29.79F
SOUTH HAVEN    FOG       65  65  99 CALM      29.79S VSB 3/4
$$
MIZ016>042-231000-
NORTHERN LOWER MICHIGAN

CITY           SKY/WX    TMP DP  RH WIND       PRES   REMARKS
ALPENA         CLOUDY    64  62  93 NE3       29.81R
BEAVER ISLAND  CLOUDY    68  65  91 SE7       29.76S
BELLAIRE       CLOUDY    65  64  93 CALM      29.77S
CADILLAC       CLOUDY    68  65  89 E7        29.78R
CHARLEVOIX     CLOUDY    67  64  90 SE6       29.79S
FRANKFORT      CLOUDY    69  69  99 W5        29.76S
GAYLORD        CLOUDY    65  60  84 S7        29.81R
GRAYLING       CLOUDY    63  60  89 E3        29.81S
HARBOR SPRINGS CLOUDY    64  63  94 NE5       29.78R
HOUGHTON LAKE  MOCLDY    64  61  90 CALM      29.81R
MANISTEE       CLOUDY    66  65  96 NW7       29.76R
OSCODA         CLOUDY    67  63  87 S6        29.79S
PELLSTON       CLOUDY    62  61  96 S5        29.78S
ROGERS CITY    CLOUDY    65  62  90 SE5       29.81R
TRAVERSE CITY  CLOUDY    69  66  90 CALM      29.76R
$$
MIZ007>008-015-231000-
EASTERN UPPER MICHIGAN

CITY           SKY/WX    TMP DP  RH WIND       PRES   REMARKS
KINROSS        CLOUDY    65  59  81 E10       29.79S
MACKINAC ISLAN MOCLDY    66  66 100 SE7       29.78R FOG
NEWBERRY       CLOUDY    64  63  97 SE7       29.75S
S. S. MARIE    CLOUDY    66  54  65 E8        29.78F
MUNISING         N/A     63  62  97 N9        29.76R
$$
MIZ004>006-011>014-085-231000-
CENTRAL UPPER MICHIGAN

CITY           SKY/WX    TMP DP  RH WIND       PRES   REMARKS
MANISTIQUE     CLOUDY    63  60  89 CALM      29.75R FOG
ESCANABA       CLOUDY    62  62 100 CALM      29.75S FOG
MENOMINEE      CLEAR     63  63 100 CALM      29.75S
SAWYER-GWINN   FOG       59  58  98 NE8       29.77S VSB 3/4
$$
MIZ001>003-009>011-084-231000-
WESTERN UPPER MICHIGAN

CITY           SKY/WX    TMP DP  RH WIND       PRES   REMARKS
IRON MOUNTAIN  FOG       65  63  93 CALM      29.75S VSB 1/4
HOUGHTON       CLOUDY    57  53  86 E5        29.79S
COPPER HARBOR    N/A     55  52  89 CALM      29.80R
IRONWOOD       FOG       56  56 100 W3        29.82R VSB 1/4
$$

ABBREVIATIONS USED IN REMARKS
   TC - TEMPERATURE IN CELSIUS
  WCI - WIND CHILL INDEX
   HX - HEAT INDEX
  VSB - VISIBILITY




USA.gov is the U.S. government's official web portal to all federal, state and local government web resources and services.